Tracking 23722 objects as of 15-Oct-2021
HD Live streaming from Space Station
objects crossing your sky now

BREEZE-KM R/B

Track BREEZE-KM R/B now!
10-day predictions


NORAD ID: 42970
Int'l Code: 2017-064B
Perigee: 419.0 km
Apogee: 763.8 km
Inclination: 98.8 °
Period: 96.4 minutes
Semi major axis: 6962 km
RCS: Unknown
Launch date: October 13, 2017
Source: Commonwealth of Independent States (former USSR) (CIS)
Launch site: PLESETSK MISSILE AND SPACE COMPLEX (PKMTR)

Note: This is a ROCKET BODY
aabbcc
Your satellite tracking list
Your tracking list is empty




NASA's NSSDC Master Catalog

Two Line Element Set (TLE):
1 42970U 17064B   21288.37935037  .00002222  00000-0  11707-3 0  9995
2 42970  98.7587  56.9198 0247585 249.6953 107.7501 14.94387614218330
Source of the keplerian elements: AFSPC